Regional Weather Roundup
Issued by NWS Jackson, KY

Home | Current Version | Previous Version | Text Only | Print | Product List | Glossary Off
Versions: 1 2 3 4 5 6 7 8 9 10 11 12 13 14 15 16 17 18 19 20 21 22 23 24 25 26 27

000
ASUS43 KJKL 240510
RWRJKL

EAST KENTUCKY HOURLY WEATHER ROUNDUP
NATIONAL WEATHER SERVICE JACKSON KY
1200 AM EST TUE JAN 24 2017

NOTE: "FAIR" INDICATES FEW OR NO CLOUDS BELOW 12,000 FEET WITH
NO SIGNIFICANT WEATHER AND/OR OBSTRUCTIONS TO VISIBILITY.

* THESE REPORTS ARE NOT UNDER NWS QUALITY CONTROL AND MAY NOT
  REPORT WEATHER SUCH AS PRECIPITATION AND FOG.

KYZ079-080-083-085-087-088-110-112-115-119-120-240600
...EASTERN KENTUCKY...

CITY           SKY/WX    TMP DP  RH WIND       PRES   REMARKS
JACKSON        CLOUDY    44  42  93 VRB6      29.66R
LONDON         LGT RAIN  42  39  89 W16       29.71R FOG
SOMERSET*      CLOUDY    39  39 100 W9G17     29.77R WCI  33
MONTICELLO*    CLOUDY    41  40  96 W12G21    29.79R
WILLIAMSBURG*  CLOUDY    41  41 100 W9G17     29.73R
MIDDLESBORO*   CLOUDY    44  42  92 NW10G16   29.70R
HARLAN APT*    CLOUDY    43  41  93 SW6       29.67S
PIKE CO APT*   DRIZZLE   43  43 100 NW8       29.62R
BIG SANDY APT* DRIZZLE   44  44 100 NE3       29.63R
MOREHEAD APT*  LGT RAIN  45  43  93 NW9G16    29.68R
ASHLAND*       CLOUDY    45  43  93 CALM      29.63R
$$

KYZ035-036-041-042-044-050-067-078-099-240600
...CENTRAL KENTUCKY...

CITY           SKY/WX    TMP DP  RH WIND       PRES   REMARKS
MT STERLING*   CLOUDY    43  43 100 NW12G23   29.71R
FLEMING/MASON* DRIZZLE   43  43  99 NW12G17   29.68R
DANVILLE*      CLOUDY    39  39 100 NW16G22   29.75S FOG     WCI  30
LEXINGTON      CLOUDY    43  40  89 NW14G22   29.72R FOG
FRANKFORT      CLOUDY    43  39  86 NW13G21   29.73R
LOUISVILLE     DRIZZLE   42  37  82 W13       29.78R
LEBANON*       CLOUDY    41  39  93 W8G17     29.77S
GLASGOW*       CLOUDY    40  37  88 W8        29.81S WCI  34
BOWLING GREEN  CLOUDY    43  35  73 NW9       29.83S
$$

KYZ091>093-OHZ055-061-077-WVZ005-015-034-035-042-240600
...SOUTHERN OHIO/WEST VIRGINIA...

CITY           SKY/WX    TMP DP  RH WIND       PRES   REMARKS
COVINGTON      CLOUDY    42  41  96 NW16G22   29.70R
COLUMBUS       DRIZZLE   42  41  96 SE3       29.65R
DAYTON         LGT RAIN  40  39  97 N12       29.69R FOG     WCI  33
WILMINGTON     LGT RAIN  40  40 100 N9        29.66S FOG     WCI  34
HUNTINGTON     CLOUDY    43  40  89 N3        29.63R
CHARLESTON     DRIZZLE   41  37  86 NW5       29.61R
BECKLEY        LGT RAIN  37  35  92 NW12      29.54R WCI  29
BLUEFIELD      LGT RAIN  37  35  92 NW10G23   29.54R WCI  30
LOGAN CO APT*  CLOUDY    41  41 100 CALM      29.59R FOG
$$

VAZ002-007-008-TNZ017-027-036-066-071-240600
...SOUTHWEST VIRGINIA/EAST TENNESSEE...

CITY           SKY/WX    TMP DP  RH WIND       PRES   REMARKS
WISE*          LGT RAIN  43  43 100 W12G21    29.61R
JONESVILLE*    CLOUDY    45  43  93 W6        29.68S
ABINGDON*      DRIZZLE   46  45  93 NW10G16   29.59R
BRISTOL        CLOUDY    47  42  83 W14       29.62R
MORRISTOWN*    CLOUDY    46  43  87 NW9G15    29.68S
SEVIERVILLE*   CLOUDY    45  39  81 SW10      29.71R
KNOXVILLE      MOCLDY    45  39  79 W12       29.73R
LAFOLLETTE*    CLOUDY    45  41  87 VRB5G13   29.75R
OAK RIDGE      CLOUDY    44  40  85 VRB7      29.74R
CROSSVILLE     CLOUDY    38  37  97 W8        29.76R FOG     WCI  32
NASHVILLE      CLOUDY    43  34  70 VRB7      29.85R
$$

...KEY TO REMARKS...
VSB - VISIBILITY IN MILES
WCI - WIND CHILL INDEX
HX  - HEAT INDEX

$$




USA.gov is the U.S. government's official web portal to all federal, state and local government web resources and services.